Location: Eyeline Observatory
(43.2182°N, 78.8632°W)
Time: 22:24:22
(UTC-05:00)

Vanguard 2 - Pass Details

Date: 28 January 2018
Orbit: 553 x 2939 km, 32.9° (Epoch: 17 February)

Event Time Altitude Azimuth Distance (km) Brightness Sun altitude
Rises 03:47:31 0° 254° (WSW) 3,531 - -41.3°
Reaches altitude 10° 03:49:47 10° 246° (WSW) 2,815 - -40.9°
Maximum altitude 03:56:18 42° 178° (S) 1,909 - -39.8°
Exits shadow 03:57:53 39° 155° (SSE) 2,112 9.6 -39.5°
Drops below altitude 10° 04:06:49 10° 113° (ESE) 4,512 12.0 -37.9°
Sets 04:11:29 0° 108° (ESE) 5,894 12.8 -37.1°
